DW6832 Weather Reports


time (UTC)temp
C
wind
direction
speed
KPH
gust
KPH
rain 1hr
cm
rain 24hr
cm
rain mn
cm
humidity
%
barometer
mb
20260906173915 23 67 0.0 0.0 0.00 0.00 0.00 83 1016.4
20260906173911 24 67 0.0 0.0 0.00 0.00 0.00 84 1016.4
20260906172911 23 101 0.0 0.0 0.00 0.00 0.00 83 1016.5
20260906172411 23 96 0.0 0.0 0.00 0.00 0.00 84 1016.4
20260906171909 23 91 0.0 0.0 0.00 0.00 0.00 84 1016.6
20260906171409 23 202 0.0 0.0 0.00 0.00 0.00 84 1016.7
20260906170909 23 89 0.0 0.0 0.00 0.00 0.00 84 1016.8
20260906170406 23 89 0.0 0.0 0.00 0.00 0.00 84 1016.8
20260906165907 23 57 0.0 0.0 0.00 0.00 0.00 84 1016.8
20260906165405 23 70 0.0 0.0 0.00 0.00 0.00 85 1016.8
20260906164904 22 115 0.0 0.0 0.00 0.00 0.00 86 1016.9
20260906164404 22 115 0.0 0.0 0.00 0.00 0.00 86 1016.9
20260906163906 22 115 0.0 0.0 0.00 0.00 0.00 86 1017.0
20260906163403 22 120 0.0 0.0 0.00 0.00 0.00 86 1017.1
20260906162903 22 88 0.0 0.0 0.00 0.00 0.00 87 1017.0
20260906162402 22 88 0.0 0.0 0.00 0.00 0.00 86 1017.0
20260906161902 22 87 0.0 0.0 0.00 0.00 0.00 86 1017.0
20260906161404 22 96 0.0 0.0 0.00 0.00 0.00 86 1017.1
20260906161400 22 112 0.0 0.0 0.00 0.00 0.00 86 1017.2
20260906160401 22 96 0.0 0.0 0.00 0.00 0.00 86 1017.1
20260906155901 22 169 0.0 0.0 0.00 0.00 0.00 86 1017.1
20260906155401 22 136 0.0 0.0 0.00 0.00 0.00 87 1017.0
20260906154858 22 132 0.0 0.0 0.00 0.00 0.00 87 1017.0
20260906154359 22 96 0.0 0.0 0.00 0.00 0.00 87 1017.0
20260906153859 22 121 0.0 0.0 0.00 0.00 0.00 86 1017.0
20260906153359 22 81 0.0 0.0 0.00 0.00 0.00 86 1017.0
20260906152858 22 58 0.0 0.0 0.00 0.00 0.00 87 1017.1
20260906152358 22 155 0.0 0.0 0.00 0.00 0.00 87 1017.1
20260906151859 22 155 0.0 0.0 0.00 0.00 0.00 87 1017.2
20260906151359 22 113 0.0 0.0 0.00 0.00 0.00 87 1017.2
20260906150857 22 95 0.0 0.0 0.00 0.00 0.00 87 1017.2
20260906150355 22 109 0.0 0.0 0.00 0.00 0.00 86 1017.2
20260906145854 22 205 0.0 0.0 0.00 0.00 0.00 86 1017.1
20260906145358 22 105 0.0 0.0 0.00 0.00 0.00 86 1017.1
20260906145352 22 62 0.0 0.0 0.00 0.00 0.00 86 1017.1
20260906144853 22 89 0.0 0.0 0.00 0.00 0.00 86 1017.1
20260906143853 22 70 0.0 0.0 0.00 0.00 0.00 87 1017.0
20260906143352 22 84 0.0 0.0 0.00 0.00 0.00 87 1017.0
20260906142852 22 94 0.0 0.0 0.00 0.00 0.00 88 1016.9
20260906142352 22 169 0.0 0.0 0.00 0.00 0.00 89 1016.8
20260906141853 22 85 0.0 0.0 0.00 0.00 0.00 89 1016.8
20260906141353 22 85 0.0 0.0 0.00 0.00 0.00 90 1016.8
20260906140852 22 136 0.0 0.0 0.00 0.00 0.00 90 1016.9
20260906140352 22 33 0.0 0.0 0.00 0.00 0.00 90 1016.9
20260906135852 22 98 0.0 0.0 0.00 0.00 0.00 90 1017.0
20260906135352 22 104 0.0 0.0 0.00 0.00 0.00 91 1016.9
20260906134852 21 105 0.0 0.0 0.00 0.00 0.00 91 1016.8
20260906134353 21 90 0.0 0.0 0.00 0.00 0.00 91 1016.7
20260906133853 21 96 0.0 0.0 0.00 0.00 0.00 91 1016.7
20260906133353 21 58 0.0 0.0 0.00 0.00 0.00 92 1016.6
20260906132858 21 99 0.0 0.0 0.00 0.00 0.00 92 1016.6
20260906132852 21 58 0.0 0.0 0.00 0.00 0.00 92 1016.6
20260906132353 21 57 0.0 0.0 0.00 0.00 0.00 92 1016.6
20260906131353 21 94 0.0 0.0 0.00 0.00 0.00 93 1016.5
20260906130855 21 94 0.0 0.0 0.00 0.00 0.00 93 1016.5
20260906130851 21 94 0.0 0.0 0.00 0.00 0.00 93 1016.5
20260906125849 21 94 0.0 0.0 0.00 0.00 0.00 93 1016.3
20260906125349 21 113 0.0 0.0 0.00 0.00 0.00 93 1016.3
20260906124848 20 93 0.0 0.0 0.00 0.00 0.00 93 1016.4
20260906124346 20 93 0.0 0.0 0.00 0.00 0.00 93 1016.4
20260906123846 20 46 0.0 0.0 0.00 0.00 0.00 93 1016.3
20260906123347 20 46 0.0 0.0 0.00 0.00 0.00 93 1016.2
20260906122846 20 46 0.0 0.0 0.00 0.00 0.00 93 1016.3
20260906122342 20 46 0.0 0.0 0.00 0.00 0.00 92 1016.4
20260906121840 20 46 0.0 0.0 0.00 0.00 0.00 92 1016.4
20260906121340 20 46 0.0 0.0 0.00 0.00 0.00 92 1016.3
20260906120840 20 46 0.0 0.0 0.00 0.00 0.00 92 1016.3
20260906120340 20 46 0.0 0.0 0.00 0.00 0.00 92 1016.3
20260906115838 20 46 0.0 0.0 0.00 0.00 0.00 92 1016.3
20260906115336 20 46 0.0 0.0 0.00 0.00 0.00 92 1016.2
20260906114836 20 46 0.0 0.0 0.00 0.00 0.00 92 1016.1
20260906114335 20 46 0.0 0.0 0.00 0.00 0.00 91 1016.1
20260906113838 20 46 0.0 0.0 0.00 0.00 0.00 91 1016.1
20260906113834 20 46 0.0 0.0 0.00 0.00 0.00 91 1016.1
20260906112834 20 46 0.0 0.0 0.00 0.00 0.00 91 1016.0
20260906112335 21 46 0.0 0.0 0.00 0.00 0.00 91 1016.0
20260906111834 21 46 0.0 0.0 0.00 0.00 0.00 91 1016.0
20260906111334 21 46 0.0 0.0 0.00 0.00 0.00 91 1015.8
20260906110839 21 46 0.0 0.0 0.00 0.00 0.00 91 1015.8
20260906110835 21 46 0.0 0.0 0.00 0.00 0.00 91 1015.9
20260906105836 21 46 0.0 0.0 0.00 0.00 0.00 91 1015.8
20260906105335 21 46 0.0 0.0 0.00 0.00 0.00 91 1015.8
20260906104834 21 46 0.0 0.0 0.00 0.00 0.00 90 1015.8
20260906104334 21 46 0.0 0.0 0.00 0.00 0.00 90 1015.8
20260906103834 21 46 0.0 0.0 0.00 0.00 0.00 90 1015.9
20260906103334 21 46 0.0 0.0 0.00 0.00 0.00 90 1015.8
20260906102835 21 46 0.0 0.0 0.00 0.00 0.00 90 1015.8
20260906102335 21 46 0.0 0.0 0.00 0.00 0.00 90 1015.8
20260906101833 21 46 0.0 0.0 0.00 0.00 0.00 90 1015.7
20260906101332 21 46 0.0 0.0 0.00 0.00 0.00 90 1015.7
20260906100832 21 46 0.0 0.0 0.00 0.00 0.00 89 1015.7
20260906100332 21 46 0.0 0.0 0.00 0.00 0.00 89 1015.8
20260906095831 21 46 0.0 0.0 0.00 0.00 0.00 89 1015.7
20260906095330 21 46 0.0 0.0 0.00 0.00 0.00 89 1015.6
20260906094830 21 46 0.0 0.0 0.00 0.00 0.00 89 1015.4
20260906094331 21 46 0.0 0.0 0.00 0.00 0.00 89 1015.2
20260906093830 21 46 0.0 0.0 0.00 0.00 0.00 89 1015.2
20260906093330 21 46 0.0 0.0 0.00 0.00 0.00 89 1015.1
20260906092832 21 44 0.0 0.0 0.00 0.00 0.00 88 1015.0
20260906092828 21 46 0.0 0.0 0.00 0.00 0.00 89 1015.1
20260906091828 21 44 0.0 0.0 0.00 0.00 0.00 88 1014.9
20260906091328 22 44 0.0 0.0 0.00 0.00 0.00 88 1014.9
20260906090833 22 44 0.0 0.0 0.00 0.00 0.00 88 1015.0
20260906090828 22 44 0.0 0.0 0.00 0.00 0.00 88 1014.9
20260906090328 22 44 0.0 0.0 0.00 0.00 0.00 88 1015.0
20260906085329 22 44 0.0 0.0 0.00 0.00 0.00 88 1015.1
20260906084827 22 44 0.0 0.0 0.00 0.00 0.00 87 1015.1
20260906084326 22 44 0.0 0.0 0.00 0.00 0.00 87 1015.0
20260906083830 22 44 0.0 0.0 0.00 0.00 0.00 86 1015.0
20260906083825 22 44 0.0 0.0 0.00 0.00 0.00 87 1015.0
20260906082826 22 44 0.0 0.0 0.00 0.00 0.00 86 1014.9
20260906082330 22 44 0.0 0.0 0.00 0.00 0.00 86 1014.8
20260906082326 22 44 0.0 0.0 0.00 0.00 0.00 86 1014.9
20260906081326 22 44 0.0 0.0 0.00 0.00 0.00 86 1014.8
20260906080831 22 155 0.0 0.0 0.00 0.00 0.00 86 1014.7
20260906080827 22 44 0.0 0.0 0.00 0.00 0.00 86 1014.8
20260906080433 22 98 0.0 0.0 0.00 0.00 0.00 86 1014.6
20260906075324 22 98 0.0 0.0 0.00 0.00 0.00 86 1014.6
20260906074824 22 107 0.0 0.0 0.00 0.00 0.00 86 1014.8
20260906074323 22 107 0.0 0.0 0.00 0.00 0.00 86 1014.8
20260906073824 22 93 0.0 0.0 0.00 0.00 0.00 86 1014.9
20260906073324 22 93 0.0 0.0 0.00 0.00 0.00 86 1014.9
20260906072828 22 93 0.0 0.0 0.00 0.00 0.00 86 1015.0
20260906072824 22 93 0.0 0.0 0.00 0.00 0.00 86 1015.0
20260906071826 22 93 0.0 0.0 0.00 0.00 0.00 86 1015.1
20260906071323 22 91 0.0 0.0 0.00 0.00 0.00 86 1015.1
20260906070822 22 91 0.0 0.0 0.00 0.00 0.00 86 1015.2
20260906070326 23 94 0.0 0.0 0.00 0.00 0.00 85 1015.3
20260906070322 22 91 0.0 0.0 0.00 0.00 0.00 86 1015.2
20260906065928 23 94 0.0 0.0 0.00 0.00 0.00 85 1015.4
20260906065322 23 94 0.0 0.0 0.00 0.00 0.00 85 1015.3
20260906064822 23 94 0.0 0.0 0.00 0.00 0.00 85 1015.5
20260906063822 23 94 0.0 0.0 0.00 0.00 0.00 85 1015.4
20260906063323 23 94 0.0 0.0 0.00 0.00 0.00 85 1015.3
20260906062823 23 94 0.0 0.0 0.00 0.00 0.00 85 1015.3
20260906062326 23 94 0.0 0.0 0.00 0.00 0.00 86 1015.2
20260906062321 23 94 0.0 0.0 0.00 0.00 0.00 86 1015.3
20260906061320 23 94 0.0 0.0 0.00 0.00 0.00 86 1015.3
20260906060820 23 94 0.0 0.0 0.00 0.00 0.00 86 1015.2
20260906060320 23 94 0.0 0.0 0.00 0.00 0.00 86 1015.4
20260906055819 23 94 0.0 0.0 0.00 0.00 0.00 86 1015.3
20260906055319 23 94 0.0 0.0 0.00 0.00 0.00 85 1015.2
20260906054820 23 94 0.0 0.0 0.00 0.00 0.00 85 1015.3
20260906054320 23 94 0.0 0.0 0.00 0.00 0.00 85 1015.3
20260906053818 23 94 0.0 0.0 0.00 0.00 0.00 84 1015.3
20260906053318 23 94 0.0 0.0 0.00 0.00 0.00 84 1015.3
20260906052818 23 94 0.0 0.0 0.00 0.00 0.00 84 1015.3
20260906052318 23 94 0.0 0.0 0.00 0.00 0.00 84 1015.2
20260906051818 23 94 0.0 0.0 0.00 0.00 0.00 84 1015.3
20260906051317 23 94 0.0 0.0 0.00 0.00 0.00 84 1015.3
20260906050824 23 94 0.0 0.0 0.00 0.00 0.00 85 1015.4
20260906050818 23 94 0.0 0.0 0.00 0.00 0.00 85 1015.3
20260906050319 23 94 0.0 0.0 0.00 0.00 0.00 85 1015.4
20260906045319 23 94 0.0 0.0 0.00 0.00 0.00 85 1015.5
20260906044819 23 94 0.0 0.0 0.00 0.00 0.00 85 1015.5
20260906044319 23 94 0.0 0.0 0.00 0.00 0.00 85 1015.6
20260906043819 23 94 0.0 0.0 0.00 0.00 0.00 85 1015.6
20260906043320 23 94 0.0 0.0 0.00 0.00 0.00 85 1015.6
20260906042818 23 94 0.0 0.0 0.00 0.00 0.00 84 1015.6
20260906042323 23 94 0.0 0.0 0.00 0.00 0.00 84 1015.6
20260906042319 23 94 0.0 0.0 0.00 0.00 0.00 84 1015.7
20260906041319 23 94 0.0 0.0 0.00 0.00 0.00 84 1015.6
20260906040819 23 94 0.0 0.0 0.00 0.00 0.00 84 1015.6
20260906040319 23 94 0.0 0.0 0.00 0.00 0.00 84 1015.7
20260906035818 23 94 0.0 0.0 0.00 0.00 0.00 84 1015.8
20260906035319 23 94 0.0 0.0 0.00 0.00 0.00 84 1015.8
20260906034819 23 94 0.0 0.0 0.00 0.00 0.00 84 1015.8
20260906034319 23 94 0.0 0.0 0.00 0.00 0.00 84 1015.8
20260906033823 23 94 0.0 0.0 0.00 0.00 0.00 84 1015.7
20260906033818 23 94 0.0 0.0 0.00 0.00 0.00 84 1015.7
20260906032818 23 94 0.0 0.0 0.00 0.00 0.00 83 1015.7
20260906032323 23 94 0.0 0.0 0.00 0.00 0.00 83 1015.6
20260906032319 23 94 0.0 0.0 0.00 0.00 0.00 83 1015.7
20260906031921 23 94 0.0 0.0 0.00 0.00 0.00 83 1015.6
20260906030815 23 94 0.0 0.0 0.00 0.00 0.00 83 1015.6
20260906030311 23 94 0.0 0.0 0.00 0.00 0.00 83 1015.6
20260906025816 23 94 0.0 0.0 0.00 0.00 0.00 83 1015.7
20260906025812 23 94 0.0 0.0 0.00 0.00 0.00 83 1015.7
20260906025308 23 94 0.0 0.0 0.00 0.00 0.00 83 1015.7
20260906024307 24 94 0.0 0.0 0.00 0.00 0.00 82 1015.8
20260906023810 24 94 0.0 0.0 0.00 0.00 0.00 82 1015.8
20260906023806 24 94 0.0 0.0 0.00 0.00 0.00 82 1015.8
20260906022805 24 94 0.0 0.0 0.00 0.00 0.00 82 1015.7
20260906022301 24 94 0.0 0.0 0.00 0.00 0.00 81 1015.5
20260906021804 24 94 0.0 0.0 0.00 0.00 0.00 81 1015.4
20260906021800 24 94 0.0 0.0 0.00 0.00 0.00 81 1015.3
20260906021404 24 94 0.0 0.0 0.00 0.00 0.00 80 1015.2
20260906020307 25 94 0.0 0.0 0.00 0.00 0.00 79 1014.6
20260906020259 25 94 0.0 0.0 0.00 0.00 0.00 80 1015.0
20260906015759 25 94 0.0 0.0 0.00 0.00 0.00 80 1014.9
20260906015301 25 94 0.0 0.0 0.00 0.00 0.00 79 1014.7
20260906014259 25 94 0.0 0.0 0.00 0.00 0.00 79 1014.5
20260906013803 25 94 0.0 0.0 0.00 0.00 0.00 78 1014.0
20260906013759 25 94 0.0 0.0 0.00 0.00 0.00 78 1014.2
20260906012758 25 94 0.0 0.0 0.00 0.00 0.00 78 1013.9
20260906012301 26 94 0.0 0.0 0.00 0.00 0.00 77 1013.6
20260906012257 25 94 0.0 0.0 0.00 0.00 0.00 77 1013.8
20260906011257 26 94 0.0 0.0 0.00 0.00 0.00 76 1013.6
20260906010757 26 94 0.0 0.0 0.00 0.00 0.00 76 1013.6
20260906010257 26 94 0.0 0.0 0.00 0.00 0.00 75 1013.5
20260906005758 26 84 0.0 0.0 0.00 0.00 0.00 74 1013.5
20260906005259 27 162 0.0 0.0 0.00 0.00 0.00 72 1013.4
20260906005255 27 78 0.0 0.0 0.00 0.00 0.00 73 1013.3
20260906004255 27 120 0.0 0.0 0.00 0.00 0.00 71 1013.4
20260906003753 27 96 0.0 0.0 0.00 0.00 0.00 70 1013.3
20260906003252 28 96 0.0 0.0 0.00 0.00 0.00 69 1013.2
20260906002751 28 96 0.0 0.0 0.00 0.00 0.00 68 1013.1
20260906002252 28 90 0.0 0.0 0.00 0.00 0.00 66 1013.0
20260906001751 28 110 0.0 0.0 0.00 0.00 0.00 66 1012.9
20260906001255 29 51 0.0 0.0 0.00 0.00 0.00 65 1012.9
20260906001251 29 51 0.0 0.0 0.00 0.00 0.00 65 1012.9
20260906000251 29 51 0.0 0.0 0.00 0.00 0.00 64 1012.9
20260905235755 29 183 0.0 0.0 0.00 0.00 0.00 63 1012.9
20260905235751 29 51 0.0 0.0 0.00 0.00 0.00 64 1013.0
20260905234749 29 195 0.0 0.0 0.00 0.00 0.00 63 1012.8
20260905234249 28 118 0.0 0.0 0.00 0.00 0.00 63 1012.9
20260905233748 28 96 0.0 0.0 0.00 0.00 0.00 62 1012.9
20260905233250 28 46 0.0 0.0 0.00 0.00 0.00 62 1012.9
20260905233246 29 96 0.0 0.0 0.00 0.00 0.00 62 1012.8
20260905232245 29 41 0.0 0.0 0.00 0.00 0.00 63 1012.7
20260905231749 29 35 0.0 0.0 0.00 0.00 0.00 63 1012.6
20260905231744 29 184 0.0 0.0 0.00 0.00 0.00 63 1012.6
20260905230745 29 45 0.0 0.0 0.00 0.00 0.00 63 1012.5
20260905230249 29 37 0.0 0.0 0.00 0.00 0.00 62 1012.4
20260905230245 29 39 0.0 0.0 0.00 0.00 0.00 62 1012.5
20260905225249 29 80 0.0 0.0 0.00 0.00 0.00 62 1012.3
20260905225244 29 80 0.0 0.0 0.00 0.00 0.00 62 1012.4
20260905224248 29 65 0.0 0.0 0.00 0.00 0.00 62 1012.2
20260905224243 29 44 0.0 0.0 0.00 0.00 0.00 61 1012.2
20260905223247 29 34 0.0 0.0 0.00 0.00 0.00 63 1012.3
20260905223243 29 43 0.0 0.0 0.00 0.00 0.00 62 1012.2
20260905222242 29 31 0.0 0.0 0.00 0.00 0.00 63 1012.3
20260905221747 29 45 0.0 0.0 0.00 0.00 0.00 62 1012.4
20260905221743 29 39 0.0 0.0 0.00 0.00 0.00 63 1012.4
20260905220743 29 36 0.0 0.0 0.00 0.00 0.00 62 1012.5
20260905220242 29 49 0.0 0.0 0.00 0.00 0.00 62 1012.6
20260905215741 29 30 0.0 0.0 0.00 0.00 0.00 62 1012.7
20260905215247 29 11 0.0 0.0 0.00 0.00 0.00 64 1012.8
20260905215241 29 67 0.0 0.0 0.00 0.00 0.00 63 1012.6
20260905214741 29 94 0.0 0.0 0.00 0.00 0.00 64 1012.6
20260905213741 29 41 0.0 0.0 0.00 0.00 0.00 65 1012.9
20260905213241 29 39 0.0 0.0 0.00 0.00 0.00 65 1012.8
20260905212740 28 355 0.0 0.0 0.00 0.00 0.00 65 1012.7
20260905212245 28 49 0.0 0.0 0.00 0.00 0.00 66 1012.8
20260905212241 28 37 0.0 0.0 0.00 0.00 0.00 66 1012.8
20260905211241 28 52 0.0 0.0 0.00 0.00 0.00 66 1012.7
20260905210739 28 22 0.0 0.0 0.00 0.00 0.00 66 1012.7
20260905210238 28 43 0.0 0.0 0.00 0.00 0.00 68 1012.7
20260905205739 28 35 0.0 0.0 0.00 0.00 0.00 68 1012.7
20260905205244 28 60 0.0 0.0 0.00 0.00 0.00 69 1012.8
20260905205240 28 62 0.0 0.0 0.00 0.00 0.00 69 1012.7
20260905204242 28 45 0.0 0.0 0.00 0.00 0.00 69 1013.1
20260905204238 28 31 0.0 0.0 0.00 0.00 0.00 69 1013.0
20260905203242 27 57 0.0 0.0 0.00 0.00 0.00 70 1013.3
20260905203238 27 50 0.0 0.0 0.00 0.00 0.00 71 1013.6
20260905202237 27 37 0.0 0.0 0.00 0.00 0.00 71 1013.7
20260905201737 27 41 0.0 0.0 0.00 0.00 0.00 71 1013.8
20260905201238 27 131 0.0 0.0 0.00 0.00 0.00 71 1013.9
20260905200737 27 41 0.0 0.0 0.00 0.00 0.00 72 1014.0
20260905200236 27 41 0.0 0.0 0.00 0.00 0.00 72 1014.1
20260905195736 27 41 0.0 0.0 0.00 0.00 0.00 73 1014.2
20260905195236 27 47 0.0 0.0 0.00 0.00 0.00 73 1014.3
20260905194736 27 47 0.0 0.0 0.00 0.00 0.00 73 1014.5
20260905194236 27 90 0.0 0.0 0.00 0.00 0.00 75 1014.5
20260905193735 27 90 0.0 0.0 0.00 0.00 0.00 74 1014.6
20260905193239 27 91 0.0 0.0 0.00 0.00 0.00 75 1014.7
20260905193235 27 91 0.0 0.0 0.00 0.00 0.00 75 1014.7
20260905192237 26 91 0.0 0.0 0.00 0.00 0.00 75 1014.9
20260905192233 27 91 0.0 0.0 0.00 0.00 0.00 75 1014.8
20260905191238 26 91 0.0 0.0 0.00 0.00 0.00 76 1014.8
20260905191234 26 91 0.0 0.0 0.00 0.00 0.00 76 1014.9
20260905190235 26 91 0.0 0.0 0.00 0.00 0.00 76 1014.9
20260905190231 26 91 0.0 0.0 0.00 0.00 0.00 77 1014.8
20260905185836 26 91 0.0 0.0 0.00 0.00 0.00 77 1014.8
20260905185230 26 91 0.0 0.0 0.00 0.00 0.00 78 1014.8
20260905184231 26 91 0.0 0.0 0.00 0.00 0.00 76 1014.9
20260905184227 26 91 0.0 0.0 0.00 0.00 0.00 77 1014.8
20260905183226 26 90 0.0 0.0 0.00 0.00 0.00 78 1014.8
20260905182726 26 90 0.0 0.0 0.00 0.00 0.00 79 1015.0
20260905182231 25 90 0.0 0.0 0.00 0.00 0.00 80 1015.0
20260905182227 26 90 0.0 0.0 0.00 0.00 0.00 79 1015.0
20260905181231 25 121 0.0 0.0 0.00 0.00 0.00 82 1015.0
20260905181226 25 122 0.0 0.0 0.00 0.00 0.00 81 1015.0
20260905180831 25 154 0.0 0.0 0.00 0.00 0.00 82 1015.1
20260905175731 25 60 0.0 0.0 0.00 0.00 0.00 84 1015.3
20260905175726 25 60 0.0 0.0 0.00 0.00 0.00 83 1015.2
20260905174727 25 60 0.0 0.0 0.00 0.00 0.00 84 1015.3
20260905174227 24 65 0.0 0.0 0.00 0.00 0.00 85 1015.4